| time (UTC) | temp F | wind direction | speed MPH | gust MPH | rain 1hr in | rain 24hr in | rain mn in | humidity % | barometer mb |
| 20260507060004 | 50 | 311 | 1.0 | 6.0 | 0.00 | 0.46 | 0.11 | 93 | 989.7 |
| 20260507055004 | 50 | 322 | 1.0 | 5.0 | 0.00 | 0.46 | 0.11 | 93 | 989.5 |
| 20260507054004 | 50 | 322 | 1.0 | 7.0 | 0.01 | 0.46 | 0.11 | 93 | 989.5 |
| 20260507053004 | 51 | 295 | 1.0 | 7.0 | 0.01 | 0.46 | 0.11 | 93 | 989.3 |
| 20260507052004 | 52 | 351 | 2.0 | 6.0 | 0.01 | 0.46 | 0.11 | 95 | 989.4 |
| 20260507051003 | 52 | 51 | 0.0 | 5.0 | 0.04 | 0.46 | 0.11 | 95 | 989.4 |
| 20260507050004 | 52 | 62 | 0.0 | 8.0 | 0.11 | 0.46 | 0.11 | 95 | 989.4 |
| 20260507044006 | 52 | 354 | 2.0 | 7.0 | 0.11 | 0.45 | 0.10 | 95 | 989.3 |
| 20260507043004 | 52 | 336 | 2.0 | 7.0 | 0.11 | 0.45 | 0.10 | 95 | 989.2 |
| 20260507042005 | 53 | 44 | 2.0 | 9.0 | 0.11 | 0.45 | 0.10 | 95 | 989.3 |
| 20260507041004 | 53 | 5 | 3.0 | 9.0 | 0.08 | 0.42 | 0.07 | 95 | 989.6 |
| 20260507040004 | 54 | 343 | 4.0 | 12.0 | 0.01 | 0.35 | 0.00 | 95 | 989.4 |
| 20260507035004 | 55 | 13 | 1.0 | 9.0 | 0.01 | 0.35 | 0.35 | 96 | 988.8 |
| 20260507034004 | 55 | 336 | 0.0 | 5.0 | 0.00 | 0.34 | 0.34 | 96 | 988.7 |
| 20260507033003 | 55 | 247 | 0.0 | 0.0 | 0.00 | 0.34 | 0.34 | 96 | 988.7 |
| 20260507032004 | 55 | 247 | 0.0 | 0.0 | 0.00 | 0.34 | 0.34 | 96 | 988.4 |
| 20260507031004 | 55 | 247 | 0.0 | 0.0 | 0.00 | 0.34 | 0.34 | 96 | 988.3 |
| 20260507030004 | 55 | 247 | 0.0 | 0.0 | 0.00 | 0.34 | 0.34 | 96 | 988.3 |
| 20260507025004 | 55 | 247 | 0.0 | 0.0 | 0.00 | 0.34 | 0.34 | 96 | 988.3 |
| 20260507024003 | 54 | 247 | 0.0 | 0.0 | 0.00 | 0.34 | 0.34 | 96 | 988.4 |
| 20260507022004 | 54 | 247 | 0.0 | 0.0 | 0.01 | 0.34 | 0.34 | 96 | 988.6 |
| 20260507020004 | 55 | 247 | 0.0 | 1.0 | 0.01 | 0.34 | 0.34 | 96 | 988.7 |
| 20260507014005 | 55 | 219 | 0.0 | 1.0 | 0.01 | 0.34 | 0.34 | 96 | 988.9 |
| 20260507010004 | 55 | 260 | 1.0 | 6.0 | 0.00 | 0.33 | 0.33 | 96 | 989.0 |
| 20260507005004 | 55 | 238 | 2.0 | 8.0 | 0.00 | 0.34 | 0.33 | 96 | 989.0 |
| 20260507004003 | 55 | 216 | 2.0 | 7.0 | 0.00 | 0.34 | 0.33 | 96 | 989.0 |
| 20260507003004 | 55 | 202 | 3.0 | 7.0 | 0.00 | 0.34 | 0.33 | 96 | 989.1 |
| 20260507002004 | 55 | 207 | 3.0 | 8.0 | 0.00 | 0.34 | 0.33 | 96 | 989.0 |
| 20260507000004 | 55 | 204 | 1.0 | 7.0 | 0.00 | 0.34 | 0.33 | 96 | 989.0 |
| 20260506235004 | 55 | 232 | 3.0 | 9.0 | 0.00 | 0.34 | 0.33 | 95 | 989.0 |
| 20260506234004 | 55 | 266 | 2.0 | 6.0 | 0.00 | 0.34 | 0.33 | 95 | 989.0 |
| 20260506232004 | 56 | 227 | 3.0 | 7.0 | 0.00 | 0.34 | 0.33 | 95 | 989.1 |
| 20260506230004 | 56 | 202 | 3.0 | 7.0 | 0.01 | 0.34 | 0.33 | 95 | 989.2 |
| 20260506225003 | 56 | 230 | 1.0 | 7.0 | 0.01 | 0.34 | 0.33 | 95 | 989.3 |
| 20260506223003 | 56 | 275 | 0.0 | 8.0 | 0.01 | 0.34 | 0.33 | 95 | 989.5 |
| 20260506222004 | 56 | 197 | 2.0 | 5.0 | 0.01 | 0.34 | 0.33 | 95 | 989.6 |
| 20260506221004 | 57 | 241 | 2.0 | 6.0 | 0.02 | 0.34 | 0.33 | 95 | 989.7 |
| 20260506220005 | 57 | 237 | 1.0 | 5.0 | 0.02 | 0.33 | 0.32 | 95 | 989.8 |
| 20260506215005 | 57 | 259 | 1.0 | 5.0 | 0.03 | 0.33 | 0.32 | 95 | 989.9 |
| 20260506214003 | 56 | 216 | 1.0 | 6.0 | 0.05 | 0.33 | 0.32 | 95 | 989.9 |
| 20260506212004 | 57 | 202 | 0.0 | 8.0 | 0.07 | 0.33 | 0.32 | 95 | 990.0 |
| 20260506211003 | 57 | 210 | 1.0 | 6.0 | 0.06 | 0.32 | 0.31 | 94 | 990.0 |
| 20260506210004 | 57 | 262 | 2.0 | 5.0 | 0.05 | 0.31 | 0.30 | 95 | 990.1 |
| 20260506205005 | 57 | 210 | 1.0 | 3.0 | 0.06 | 0.30 | 0.29 | 94 | 990.1 |
| 20260506204004 | 57 | 128 | 0.0 | 0.0 | 0.05 | 0.28 | 0.27 | 94 | 990.3 |
| 20260506202004 | 57 | 222 | 0.0 | 3.0 | 0.05 | 0.26 | 0.25 | 94 | 990.4 |
| 20260506201005 | 57 | 182 | 0.0 | 6.0 | 0.08 | 0.26 | 0.25 | 94 | 990.3 |
| 20260506200004 | 57 | 210 | 1.0 | 6.0 | 0.17 | 0.26 | 0.25 | 93 | 990.5 |
| 20260506195004 | 57 | 189 | 0.0 | 2.0 | 0.19 | 0.24 | 0.23 | 93 | 990.7 |
| 20260506194004 | 57 | 141 | 0.0 | 3.0 | 0.21 | 0.23 | 0.22 | 93 | 990.7 |
| 20260506193004 | 57 | 198 | 0.0 | 0.0 | 0.21 | 0.22 | 0.21 | 92 | 990.7 |
| 20260506192004 | 57 | 198 | 0.0 | 2.0 | 0.20 | 0.21 | 0.20 | 92 | 990.7 |
| 20260506191004 | 57 | 197 | 3.0 | 6.0 | 0.17 | 0.18 | 0.17 | 91 | 991.1 |
| 20260506190006 | 57 | 269 | 2.0 | 6.0 | 0.08 | 0.09 | 0.08 | 90 | 991.3 |
| 20260506185003 | 58 | 234 | 1.0 | 7.0 | 0.04 | 0.05 | 0.04 | 86 | 990.7 |
| 20260506184004 | 59 | 210 | 2.0 | 9.0 | 0.01 | 0.02 | 0.01 | 85 | 991.0 |
| 20260506183005 | 60 | 199 | 3.0 | 8.0 | 0.00 | 0.01 | 0.00 | 80 | 990.8 |
| 20260506182003 | 61 | 198 | 2.0 | 8.0 | 0.00 | 0.01 | 0.00 | 77 | 990.7 |
| 20260506180005 | 62 | 218 | 3.0 | 7.0 | 0.00 | 0.01 | 0.00 | 74 | 990.8 |
| 20260506175004 | 62 | 229 | 2.0 | 5.0 | 0.00 | 0.01 | 0.00 | 75 | 990.7 |
| 20260506174004 | 62 | 226 | 3.0 | 8.0 | 0.00 | 0.01 | 0.00 | 75 | 990.9 |
| 20260506173005 | 62 | 263 | 2.0 | 5.0 | 0.00 | 0.01 | 0.00 | 76 | 991.1 |
| 20260506172004 | 62 | 192 | 2.0 | 5.0 | 0.00 | 0.01 | 0.00 | 75 | 991.2 |
| 20260506165005 | 63 | 210 | 2.0 | 6.0 | 0.00 | 0.01 | 0.00 | 74 | 991.9 |
| 20260506164004 | 63 | 134 | 3.0 | 7.0 | 0.00 | 0.01 | 0.00 | 73 | 992.0 |
| 20260506163004 | 63 | 199 | 1.0 | 6.0 | 0.00 | 0.01 | 0.00 | 75 | 992.3 |
| 20260506162004 | 62 | 230 | 2.0 | 7.0 | 0.00 | 0.01 | 0.00 | 74 | 992.4 |
| 20260506161005 | 62 | 263 | 2.0 | 5.0 | 0.00 | 0.01 | 0.00 | 76 | 992.7 |
| 20260506160003 | 62 | 205 | 0.0 | 5.0 | 0.00 | 0.01 | 0.00 | 75 | 992.9 |
| 20260506155004 | 62 | 72 | 1.0 | 5.0 | 0.00 | 0.01 | 0.00 | 75 | 993.0 |
| 20260506154004 | 62 | 185 | 2.0 | 5.0 | 0.00 | 0.01 | 0.00 | 76 | 993.0 |
| 20260506153004 | 61 | 142 | 1.0 | 5.0 | 0.00 | 0.01 | 0.00 | 76 | 993.0 |
| 20260506152004 | 61 | 162 | 2.0 | 5.0 | 0.00 | 0.01 | 0.00 | 76 | 993.1 |
| 20260506151004 | 61 | 176 | 1.0 | 5.0 | 0.00 | 0.01 | 0.00 | 76 | 992.9 |
| 20260506150004 | 61 | 218 | 1.0 | 3.0 | 0.00 | 0.01 | 0.00 | 76 | 993.0 |
| 20260506145004 | 61 | 178 | 1.0 | 3.0 | 0.00 | 0.01 | 0.00 | 76 | 992.9 |
| 20260506144005 | 61 | 272 | 2.0 | 5.0 | 0.00 | 0.01 | 0.00 | 76 | 992.7 |
| 20260506143004 | 61 | 168 | 3.0 | 7.0 | 0.00 | 0.01 | 0.00 | 75 | 992.5 |
| 20260506142004 | 61 | 187 | 2.0 | 7.0 | 0.00 | 0.01 | 0.00 | 74 | 992.7 |
| 20260506141004 | 61 | 171 | 0.0 | 3.0 | 0.00 | 0.01 | 0.00 | 75 | 993.0 |
| 20260506140004 | 61 | 177 | 2.0 | 3.0 | 0.00 | 0.01 | 0.00 | 77 | 993.3 |
| 20260506135004 | 60 | 109 | 0.0 | 3.0 | 0.00 | 0.01 | 0.00 | 76 | 993.2 |
| 20260506133005 | 59 | 235 | 0.0 | 2.0 | 0.00 | 0.01 | 0.00 | 77 | 993.4 |
| 20260506132005 | 59 | 103 | 0.0 | 3.0 | 0.00 | 0.01 | 0.00 | 78 | 993.1 |
| 20260506131004 | 59 | 150 | 0.0 | 3.0 | 0.00 | 0.01 | 0.00 | 79 | 993.1 |
| 20260506130004 | 58 | 119 | 0.0 | 5.0 | 0.00 | 0.01 | 0.00 | 79 | 993.1 |
| 20260506125004 | 58 | 164 | 1.0 | 2.0 | 0.00 | 0.01 | 0.00 | 79 | 993.1 |
| 20260506123004 | 57 | 151 | 0.0 | 3.0 | 0.00 | 0.01 | 0.00 | 81 | 993.4 |
| 20260506121005 | 56 | 107 | 0.0 | 0.0 | 0.00 | 0.01 | 0.00 | 83 | 993.6 |
| 20260506120004 | 56 | 107 | 0.0 | 0.0 | 0.00 | 0.01 | 0.00 | 83 | 993.5 |
| 20260506115004 | 55 | 107 | 0.0 | 0.0 | 0.00 | 0.01 | 0.00 | 83 | 993.8 |
| 20260506114004 | 55 | 107 | 0.0 | 0.0 | 0.00 | 0.01 | 0.00 | 84 | 993.7 |
| 20260506112004 | 54 | 107 | 0.0 | 0.0 | 0.00 | 0.01 | 0.00 | 84 | 993.9 |
| 20260506105004 | 54 | 90 | 0.0 | 0.0 | 0.00 | 0.01 | 0.00 | 86 | 993.9 |
| 20260506104004 | 54 | 90 | 0.0 | 0.0 | 0.00 | 0.01 | 0.00 | 86 | 993.8 |
| 20260506103004 | 54 | 90 | 0.0 | 2.0 | 0.00 | 0.01 | 0.00 | 86 | 993.7 |
| 20260506102004 | 54 | 112 | 0.0 | 0.0 | 0.00 | 0.01 | 0.00 | 86 | 993.6 |
| 20260506100005 | 54 | 112 | 0.0 | 3.0 | 0.00 | 0.01 | 0.00 | 86 | 993.5 |
| 20260506095004 | 54 | 31 | 1.0 | 2.0 | 0.00 | 0.01 | 0.00 | 86 | 993.6 |
| 20260506094004 | 54 | 64 | 0.0 | 0.0 | 0.00 | 0.01 | 0.00 | 86 | 993.5 |
| 20260506093004 | 54 | 64 | 0.0 | 0.0 | 0.00 | 0.01 | 0.00 | 85 | 993.7 |
| 20260506091004 | 55 | 64 | 0.0 | 0.0 | 0.00 | 0.01 | 0.00 | 82 | 993.4 |
| 20260506090004 | 55 | 64 | 0.0 | 0.0 | 0.00 | 0.01 | 0.00 | 82 | 993.4 |
| 20260506085004 | 55 | 109 | 0.0 | 0.0 | 0.00 | 0.01 | 0.00 | 82 | 993.1 |
| 20260506084004 | 55 | 109 | 0.0 | 0.0 | 0.00 | 0.01 | 0.00 | 83 | 993.1 |
| 20260506083003 | 55 | 109 | 0.0 | 0.0 | 0.00 | 0.01 | 0.00 | 84 | 992.9 |
| 20260506082004 | 55 | 109 | 0.0 | 0.0 | 0.00 | 0.01 | 0.00 | 84 | 992.9 |
| 20260506073004 | 55 | 109 | 0.0 | 0.0 | 0.00 | 0.01 | 0.00 | 84 | 992.9 |
| 20260506071004 | 55 | 109 | 0.0 | 0.0 | 0.00 | 0.01 | 0.00 | 82 | 992.8 |
| 20260506062004 | 55 | 109 | 0.0 | 0.0 | 0.00 | 0.01 | 0.00 | 83 | 992.4 |